STARLINK-35337, 65831

Orbit data source: Space-Track

STARLINK-35337, 65831 is a payload satellite owned by SpaceX/Seattle (US) in LEO that was launched on Mon, 29 Sep 2025 UTC via an FALCON 9 launch vehicle from the Air Force Western Test Range (AFWTR). Payload-class satellites include a variety of spacecraft equipped with specific instruments for various scientific and technological missions. These include communications satellites like Starlink; space stations such as the ISS; scientific satellites like the Hubble; Earth observation satellites from companies like Planet Labs, Umbra, and HawkEye 360; GPS; miniature CubeSats for education and research; and military/defense satellites.

Loading next visibility...
Identifier
65831, 2025-221J
Orbit
LEO
Country
Flag of USUS
Related business
Manufacturer
SpaceX/Seattle
Mission
Operational Commercial Communications
Bus & Motor
STARLINK V2MO, Unknown motor
Mass
575 kg wet, ~530 kg dry
Launch date (UTC)
2025-09-29 (9 months ago)
Launch vehicle
FALCON 9
Launch site
Air Force Western Test Range (AFWTR)
Object type
Payload
Rocket body
Debris
Shape & HBR
Box + 2 Pan, 17.7 m
Radar Cross Section
36.964 m², Large (>1 m²)

Expand to show TLE details & history
Last TLE update: 16 hours ago

TLE from 16 hours ago
0 STARLINK-35337
1 65831U 25221J   26171.17504784  .00001094  00000-0  43532-4 0  9993
2 65831  53.1589 330.9457 0000912  97.4092 262.7014 15.34381154 41798
Epoch: 2026-06-20T04:12Z
TLE epoch observation values (Epoch: 2026-06-20T04:12:04.133Z)
Latitude
-0.00003°
Longitude
-0.46499°
Altitude
463.74 km
Speed
7.636 km/s
True Right ascension
22h 03m 46s
True Declination
0° 00' 00"
Sunlit
Object was in full shadow at epoch
Visualization orbit readout
Latitude
Unknown
Longitude
Unknown
Altitude
Unknown
Speed
Unknown
Apparent Right ascension
Unknown
Apparent Declination
Unknown
Sunlit
N/A
Visualization observer readout
Local Sidereal Time
07:21:35
Azimuth
Unknown
Elevation
Unknown
Doppler factor
Unknown
Orbital elements
Apogee altitude
463.64 km
Perigee altitude
462.392 km
Semi-major axis
6,841.153 km
Eccentricity
0.00009
Inclination
53.1589°
RAAN
330.9457°
Arg. of periapsis
97.4092°
True anomaly
262.69103°
Mean anomaly
262.7014°
Eccentric anomaly
262.69622°
Mean motion
3.83574 °/min
Orbital period
93.85 mins
BSTAR
0.000043532
Loading maneuver chart data...
Computing Atmospheric mass density...
Loading historical data...
Loading historical data...
Loading historical data...
Loading historical data...
Loading historical data...
Loading historical data...
Loading historical data...

Documentation

Showing up to 5 results
|